1516352400.11,1468,7.63,71756.0,-10.07,-23.13,-21.17,0,*5B
1516352401.35,1469,7.63,71754.0,-10.09,-22.93,-21.57,0,*59
1516352402.58,1470,7.63,71758.3,-10.13,-22.87,-21.73,0,*59
1516352403.81,1471,7.63,71758.0,-10.13,-22.53,-21.73,0,*51
1516352405.04,1472,7.69,71754.8,-10.15,-23.59,-23.03,0,*5A
1516352406.31,1473,7.69,71752.8,-10.15,-24.71,-22.77,0,*54
1516352407.51,1474,7.69,71758.5,-10.15,-25.19,-22.63,0,*59
1516352408.8,1475,7.69,71756.5,-10.21,-25.55,-22.17,0,*54
1516352410.04,1476,7.69,71760.0,-10.21,-24.77,-20.73,0,*56
1516352411.3,1477,7.69,71756.5,-10.19,-23.69,-19.61,0,*5D
1516352412.5,1478,7.69,71758.0,-10.19,-22.63,-18.73,0,*5B
1516352413.78,1479,7.63,71754.3,-10.21,-21.83,-18.89,0,*59
1516352415.04,1480,7.63,71748.3,-10.21,-21.17,-19.65,0,*51
1516352416.28,1481,7.63,71748.0,-10.21,-19.71,-19.47,0,*5B
1516352417.57,1482,7.63,71754.5,-10.21,-18.55,-20.49,0,*5B
1516352418.84,1483,7.63,71756.0,-10.23,-19.57,-22.17,0,*52
1516352420.04,1484,7.69,71758.5,-10.23,-19.99,-22.67,0,*50
1516352421.27,1485,7.63,71744.0,-10.25,-21.43,-24.47,0,*5F
1516352422.56,1486,7.63,71744.0,-10.25,-23.49,-25.75,0,*54
1516352423.83,1487,7.63,71748.5,-10.25,-24.57,-26.13,0,*5E
1516352425.09,1488,7.63,71740.5,-10.25,-25.65,-26.77,0,*53
1516352426.32,1489,7.69,71746.0,-10.25,-25.91,-26.07,0,*5E
1516352427.58,1490,7.63,71742.0,-10.29,-25.65,-24.67,0,*55
1516352428.82,1491,7.63,71736.8,-10.27,-24.83,-23.13,0,*57
1516352430.07,1492,7.63,71742.3,-10.25,-23.69,-22.03,0,*55
1516352431.34,1493,7.69,71746.0,-10.25,-22.53,-21.87,0,*53
1516352432.6,1494,7.63,71734.8,-10.25,-22.53,-23.65,0,*5A
1516352433.88,1495,7.63,71734.5,-10.25,-23.65,-24.83,0,*50
1516352435.14,1496,7.69,71740.5,-10.25,-25.61,-25.97,0,*55
1516352436.43,1497,7.69,71742.8,-10.25,-26.81,-25.81,0,*5E
1516352437.7,1498,7.63,71746.8,-10.25,-27.55,-25.75,0,*52
1516352438.93,1499,7.69,71748.5,-10.25,-27.55,-24.97,0,*5E
1516352440.2,1500,7.69,71744.8,-10.25,-26.71,-23.99,0,*51
1516352441.48,1501,7.63,71744.5,-10.25,-26.55,-23.69,0,*59
1516352442.69,1502,7.63,71742.0,-10.27,-25.61,-22.97,0,*5C
1516352443.91,1503,7.63,71742.0,-10.27,-24.93,-22.73,0,*5B
1516352445.16,1504,7.69,71740.0,-10.27,-24.67,-22.73,0,*57
1516352446.38,1505,7.69,71740.8,-10.27,-24.77,-21.93,0,*5A
1516352447.62,1506,7.63,71740.0,-10.27,-24.61,-21.23,0,*55
1516352448.85,1507,7.63,71744.0,-10.27,-23.79,-20.35,0,*5C
1516352450.08,1508,7.69,71744.3,-10.27,-23.33,-19.71,0,*57
1516352451.29,1509,7.63,71746.3,-10.27,-22.67,-19.13,0,*52
1516352452.52,1510,7.63,71746.3,-10.25,-21.43,-18.17,0,*58
1516352453.77,1511,7.63,71742.5,-10.25,-20.93,-17.79,0,*52
1516352455.04,1512,7.63,71732.0,-10.25,-19.57,-16.89,0,*5D
1516352456.27,1513,7.69,71738.0,-10.25,-18.49,-16.37,0,*57
1516352457.47,1514,7.63,71736.0,-10.23,-19.07,-16.93,0,*53
1516352458.71,1515,7.69,71732.5,-10.23,-19.57,-17.49,0,*51
1516352459.96,1516,7.69,71730.0,-10.23,-18.89,-17.21,0,*5E
1516352461.2,1517,7.63,71732.8,-10.23,-18.79,-17.11,0,*53
1516352462.48,1518,7.63,71736.0,-10.25,-18.31,-16.51,0,*53
1516352463.75,1519,7.69,71736.3,-10.25,-18.31,-16.41,0,*53
1516352465.04,1520,7.69,71738.8,-10.21,-18.01,-16.09,0,*52
1516352466.33,1521,7.69,71740.0,-10.21,-18.01,-16.09,0,*53
1516352467.59,1522,7.63,71736.5,-10.21,-18.41,-16.31,0,*5F
1516352468.85,1523,7.63,71734.5,-10.21,-17.73,-15.81,0,*58
1516352470.09,1524,7.69,71738.8,-10.19,-17.55,-15.71,0,*5F
1516352471.32,1525,7.63,71736.5,-10.21,-17.49,-15.75,0,*5C
1516352472.56,1526,7.63,71740.8,-10.19,-17.21,-15.63,0,*5D
1516352473.78,1527,7.63,71736.8,-10.19,-16.79,-15.29,0,*5E
1516352475.02,1528,7.69,71740.8,-10.19,-16.79,-15.39,0,*50
1516352476.26,1529,7.69,71738.0,-10.15,-16.75,-15.43,0,*5C
1516352477.5,1530,7.63,71736.8,-10.19,-16.13,-14.89,0,*5F
1516352478.69,1531,7.69,71742.0,-10.15,-15.99,-14.69,0,*5D
1516352479.95,1532,7.69,71746.5,-10.13,-15.85,-14.69,0,*55
1516352481.19,1533,7.63,71746.5,-10.13,-15.67,-14.65,0,*54
1516352482.42,1534,7.63,71746.5,-10.13,-15.53,-14.69,0,*58
1516352483.63,1535,7.63,71746.5,-10.09,-15.29,-14.61,0,*57
1516352484.89,1536,7.63,71752.0,-10.07,-15.35,-14.65,0,*53
1516352486.15,1537,7.69,71756.8,-10.09,-14.93,-14.47,0,*51
1516352487.42,1538,7.63,71752.8,-10.07,-15.35,-15.15,0,*5B
1516352488.67,1539,7.69,71756.5,-10.07,-15.89,-15.67,0,*58
1516352489.95,1540,7.69,71744.0,-10.07,-16.23,-16.23,0,*56
1516352491.21,1541,7.63,71740.0,-10.09,-16.31,-16.23,0,*5A
1516352492.44,1542,7.69,71750.5,-10.09,-15.21,-15.07,0,*5E
1516352493.66,1543,7.69,71740.3,-10.09,-15.75,-15.67,0,*58
1516352494.93,1544,7.63,71734.8,-10.07,-15.21,-15.21,0,*52
1516352496.2,1545,7.63,71740.8,-10.07,-15.43,-15.75,0,*56
1516352497.46,1546,7.63,71746.3,-10.09,-15.89,-16.51,0,*58
1516352498.72,1547,7.63,71752.8,-10.09,-16.65,-17.25,0,*5A
1516352499.95,1548,7.63,71752.0,-10.13,-16.75,-17.73,0,*5C
1516352501.21,1549,7.69,71754.8,-10.13,-15.95,-17.11,0,*54
1516352502.45,1550,7.69,71758.5,-10.13,-16.97,-18.49,0,*5F
1516352503.7,1551,7.63,71752.5,-10.15,-17.03,-18.55,0,*59
1516352504.95,1552,7.63,71748.3,-10.15,-17.55,-19.27,0,*5D
1516352506.21,1553,7.69,71748.8,-10.13,-17.73,-19.41,0,*5E
1516352507.47,1554,7.63,71748.8,-10.19,-17.93,-19.61,0,*5F
1516352508.67,1555,7.63,71750.3,-10.19,-18.11,-19.51,0,*58
1516352509.93,1556,7.63,71752.3,-10.21,-18.25,-19.65,0,*50
1516352511.19,1557,7.69,71752.5,-10.21,-18.89,-20.73,0,*5A
1516352512.43,1558,7.69,71752.3,-10.21,-19.17,-21.73,0,*52
1516352513.64,1559,7.63,71750.3,-10.23,-19.99,-22.97,0,*5E
1516352514.89,1560,7.69,71750.5,-10.25,-20.69,-24.15,0,*5B
1516352516.18,1561,7.69,71748.5,-10.25,-21.87,-25.75,0,*5C
1516352517.39,1562,7.63,71750.8,-10.27,-22.67,-26.23,0,*50
1516352518.65,1563,7.63,71748.0,-10.27,-23.99,-26.97,0,*5E
1516352519.91,1564,7.69,71748.3,-10.27,-25.75,-27.61,0,*55
1516352521.17,1565,7.63,71744.5,-10.27,-27.45,-27.61,0,*55
1516352522.4,1566,7.69,71746.8,-10.29,-28.97,-27.89,0,*5E
1516352523.67,1567,7.69,71742.8,-10.29,-29.67,-27.99,0,*50
1516352524.94,1568,7.63,71740.3,-10.29,-30.01,-28.15,0,*5C
1516352526.18,1569,7.63,71738.8,-10.29,-30.11,-28.31,0,*5A
1516352527.46,1570,7.63,71742.8,-10.33,-31.57,-29.29,0,*52
1516352528.71,1571,7.69,71742.8,-10.33,-31.85,-29.07,0,*50
1516352529.97,1572,7.69,71742.0,-10.33,-32.07,-28.69,0,*53
1516352531.26,1573,7.63,71736.0,-10.33,-32.75,-28.59,0,*54
1516352532.52,1574,7.63,71734.3,-10.33,-32.63,-27.93,0,*5D
1516352533.78,1575,7.63,71732.3,-10.33,-32.39,-27.35,0,*5F
1516352535.02,1576,7.63,71732.8,-10.33,-32.01,-26.65,0,*53
1516352536.28,1577,7.63,71732.0,-10.33,-32.07,-25.87,0,*5B
1516352537.55,1578,7.63,71736.5,-10.33,-31.73,-25.09,0,*52
1516352538.78,1579,7.63,71736.0,-10.31,-30.89,-24.47,0,*5E
1516352540.01,1580,7.69,71740.5,-10.33,-29.79,-23.59,0,*55
1516352541.25,1581,7.63,71738.8,-10.33,-28.69,-22.93,0,*53
1516352542.46,1582,7.69,71742.8,-10.31,-28.15,-22.53,0,*55
1516352543.71,1583,7.63,71740.0,-10.33,-27.51,-21.97,0,*52
1516352544.95,1584,7.69,71742.3,-10.33,-27.07,-21.47,0,*5B
1516352546.19,1585,7.69,71744.0,-10.33,-26.49,-21.09,0,*5B
1516352547.44,1586,7.69,71748.8,-10.31,-26.29,-20.83,0,*5F
1516352548.66,1587,7.69,71750.3,-10.31,-25.65,-20.25,0,*59
1516352549.89,1588,7.69,71750.5,-10.33,-25.39,-20.09,0,*53
1516352551.17,1589,7.63,71748.3,-10.31,-24.71,-19.57,0,*5C
1516352552.4,1590,7.63,71748.8,-10.31,-24.61,-19.31,0,*55
1516352553.65,1591,7.63,71750.0,-10.29,-24.47,-19.17,0,*5D
1516352554.88,1592,7.63,71750.8,-10.27,-23.49,-18.21,0,*5D
1516352556.14,1593,7.63,71746.3,-10.31,-22.77,-17.93,0,*51
1516352557.39,1594,7.69,71750.5,-10.29,-22.21,-17.31,0,*54
1516352558.65,1595,7.69,71754.8,-10.29,-21.63,-17.03,0,*51
1516352559.88,1596,7.63,71748.8,-10.27,-21.09,-16.65,0,*51
1516352561.12,1597,7.63,71748.3,-10.27,-20.93,-16.69,0,*5E
1516352562.37,1598,7.69,71750.8,-10.25,-20.05,-16.23,0,*52
1516352563.63,1599,7.69,71752.5,-10.23,-19.57,-15.81,0,*53
1516352564.88,1600,7.69,71754.5,-10.21,-19.51,-15.95,0,*51
1516352566.14,1601,7.63,71752.8,-10.21,-19.07,-15.89,0,*5E
1516352567.37,1602,7.63,71752.3,-10.19,-17.69,-14.83,0,*5B
1516352568.63,1603,7.69,71752.8,-10.15,-17.03,-14.51,0,*55
1516352569.89,1604,7.69,71752.8,-10.13,-16.51,-14.15,0,*52
1516352571.15,1605,7.63,71754.3,-10.07,-16.17,-14.29,0,*5B
1516352572.43,1606,7.63,71754.0,-10.07,-16.09,-14.93,0,*56
1516352573.7,1607,7.69,71758.3,-10.03,-16.27,-15.49,0,*59
1516352574.93,1608,7.63,71754.5,-10.05,-16.51,-16.45,0,*5E
1516352576.21,1609,7.69,71748.8,-10.03,-17.21,-17.93,0,*55
1516352577.46,1610,7.69,71746.8,-10.01,-17.63,-18.55,0,*5C
1516352578.68,1611,7.69,71744.5,-9.99,-18.41,-19.07,0,*6D
1516352579.92,1612,7.63,71740.8,-10.01,-18.55,-19.13,0,*57
1516352581.18,1613,7.69,71744.5,-10.01,-19.41,-20.35,0,*5C
1516352582.42,1614,7.69,71736.3,-10.01,-19.99,-20.49,0,*55
1516352583.64,1615,7.63,71730.8,-10.01,-20.39,-20.69,0,*56
1516352584.87,1616,7.69,71732.0,-10.01,-20.39,-20.15,0,*5E
1516352586.15,1617,7.69,71734.5,-9.99,-21.23,-20.49,0,*65
1516352587.4,1618,7.63,71724.8,-9.99,-22.37,-21.57,0,*62
1516352588.66,1619,7.69,71724.3,-9.99,-23.19,-21.93,0,*66
1516352589.88,1620,7.69,71728.0,-9.97,-23.29,-21.73,0,*6F
1516352591.14,1621,7.63,71732.0,-9.99,-23.19,-21.47,0,*64
1516352592.39,1622,7.63,71738.5,-9.99,-23.29,-21.09,0,*6E
1516352593.63,1623,7.69,71738.5,-10.01,-23.13,-20.53,0,*51
1516352594.87,1624,7.69,71740.0,-9.99,-23.69,-20.69,0,*6B
1516352596.14,1625,7.69,71738.8,-10.01,-24.11,-20.35,0,*52
1516352597.37,1626,7.63,71736.8,-10.01,-24.11,-19.99,0,*5D
1516352598.58,1627,7.69,71740.8,-10.01,-23.39,-19.13,0,*53
1516352599.83,1628,7.69,71748.8,-9.99,-23.49,-18.99,0,*61
1516352601.09,1629,7.63,71746.3,-10.01,-23.95,-19.27,0,*5C
1516352602.29,1630,7.69,71746.0,-10.01,-23.39,-18.83,0,*5D
1516352603.52,1631,7.69,71738.0,-10.01,-22.37,-17.63,0,*52
1516352604.74,1632,7.69,71736.5,-10.01,-21.47,-16.83,0,*5A
1516352605.97,1633,7.69,71732.8,-10.01,-20.53,-15.99,0,*57
1516352607.25,1634,7.69,71732.5,-9.99,-19.85,-15.39,0,*62
1516352608.51,1635,7.63,71734.8,-9.97,-19.65,-15.39,0,*63
1516352609.77,1636,7.69,71740.3,-9.95,-19.07,-15.01,0,*6D
1516352610.99,1637,7.69,71740.0,-9.89,-18.55,-14.69,0,*68
1516352612.22,1638,7.69,71744.5,-9.85,-18.49,-14.83,0,*62
1516352613.47,1639,7.69,71744.3,-9.85,-18.35,-14.83,0,*68
1516352614.74,1640,7.69,71746.3,-9.83,-18.35,-15.01,0,*6B
1516352615.97,1641,7.63,71740.0,-9.83,-18.45,-15.07,0,*6B
1516352617.22,1642,7.69,71744.5,-9.81,-18.31,-15.21,0,*6D
1516352618.45,1643,7.69,71744.5,-9.79,-18.41,-15.35,0,*69
1516352619.7,1644,7.63,71738.8,-9.77,-17.93,-14.89,0,*66
1516352620.98,1645,7.69,71742.0,-9.77,-17.55,-14.43,0,*6B
1516352622.24,1646,7.63,71736.8,-9.73,-17.63,-14.55,0,*6E
1516352623.52,1647,7.63,71738.0,-9.73,-17.59,-14.51,0,*62
1516352624.76,1648,7.63,71740.3,-9.71,-17.03,-13.87,0,*6C
1516352625.97,1649,7.69,71742.3,-9.67,-16.93,-13.87,0,*62
1516352627.22,1650,7.69,71742.5,-9.65,-16.65,-13.73,0,*6A
1516352628.44,1651,7.63,71738.0,-9.63,-16.45,-13.61,0,*6C
1516352629.67,1652,7.69,71740.3,-9.61,-15.95,-13.23,0,*65
1516352630.89,1653,7.63,71738.3,-9.59,-15.81,-13.23,0,*6A
1516352632.12,1654,7.63,71736.5,-9.59,-15.29,-12.79,0,*61
1516352633.38,1655,7.69,71740.5,-9.57,-14.47,-12.21,0,*6A
1516352634.6,1656,7.63,71738.0,-9.55,-14.11,-12.15,0,*6F
1516352635.89,1657,7.63,71738.3,-9.53,-13.83,-12.11,0,*60
1516352637.11,1658,7.69,71740.8,-9.49,-13.69,-12.43,0,*67
1516352638.41,1659,7.63,71736.8,-9.45,-13.83,-12.53,0,*6F
1516352639.7,1660,7.69,71742.0,-9.45,-13.97,-12.79,0,*68
1516352640.97,1661,7.63,71740.0,-9.41,-13.73,-12.61,0,*6E
1516352642.23,1662,7.69,71740.0,-9.41,-13.93,-12.75,0,*66
1516352643.49,1663,7.69,71740.5,-9.41,-13.73,-12.61,0,*6C
1516352644.7,1664,7.69,71742.3,-9.39,-13.55,-12.43,0,*60
1516352645.96,1665,7.69,71744.3,-9.39,-13.61,-12.61,0,*66
1516352647.23,1666,7.69,71742.0,-9.37,-14.19,-13.33,0,*65
1516352648.46,1667,7.63,71742.3,-9.39,-13.47,-12.61,0,*60
1516352649.7,1668,7.69,71742.8,-9.37,-13.19,-12.47,0,*6E
1516352650.94,1669,7.63,71736.5,-9.35,-13.43,-12.79,0,*6F
1516352652.23,1670,7.69,71740.8,-9.33,-13.29,-12.79,0,*6D
1516352653.5,1671,7.63,71738.0,-9.33,-12.97,-12.71,0,*60
1516352654.77,1672,7.69,71740.3,-9.33,-13.11,-12.71,0,*6C
1516352656.03,1673,7.63,71740.3,-9.33,-13.23,-13.01,0,*6A
1516352657.29,1674,7.63,71736.8,-9.33,-13.29,-13.23,0,*67
1516352658.54,1675,7.69,71740.8,-9.33,-13.43,-13.29,0,*60
1516352659.8,1676,7.69,71740.0,-9.33,-13.29,-13.15,0,*60
1516352661.06,1677,7.69,71742.3,-9.33,-13.43,-13.37,0,*6D
1516352662.29,1678,7.63,71738.0,-9.33,-13.43,-13.43,0,*61
1516352663.56,1679,7.63,71738.8,-9.33,-13.51,-13.37,0,*60
1516352664.78,1680,7.69,71738.3,-9.33,-13.65,-13.69,0,*6A
1516352666.07,1681,7.69,71736.5,-9.33,-13.29,-13.29,0,*67
1516352667.35,1682,7.69,71738.0,-9.33,-13.37,-13.29,0,*6B
1516352668.56,1683,7.63,71734.3,-9.31,-12.89,-12.93,0,*6C
1516352669.83,1684,7.63,71732.3,-9.31,-12.79,-12.79,0,*60
1516352671.12,1685,7.63,71734.0,-9.29,-12.53,-12.61,0,*69
1516352672.35,1686,7.69,71738.3,-9.31,-12.35,-12.25,0,*63
1516352673.59,1687,7.69,71738.0,-9.27,-12.35,-12.43,0,*65
1516352674.83,1688,7.69,71736.3,-9.29,-12.97,-13.11,0,*6A
1516352676.09,1689,7.69,71736.5,-9.29,-13.37,-13.47,0,*63
1516352677.32,1690,7.69,71738.0,-9.29,-13.47,-13.51,0,*6B
1516352678.56,1691,7.69,71734.3,-9.29,-13.51,-13.65,0,*6A
1516352679.86,1692,7.63,71732.8,-9.29,-13.83,-14.05,0,*67
1516352681.06,1693,7.69,71736.5,-9.31,-13.93,-14.11,0,*6B
1516352682.32,1694,7.69,71736.3,-9.29,-13.73,-13.83,0,*67
1516352683.55,1695,7.69,71736.5,-9.31,-13.61,-13.73,0,*63
1516352684.79,1696,7.69,71738.8,-9.31,-13.61,-13.73,0,*60
1516352686.05,1697,7.69,71740.3,-9.31,-13.79,-13.97,0,*62
1516352687.28,1698,7.63,71736.0,-9.31,-13.65,-13.83,0,*65
1516352688.51,1699,7.69,71736.8,-9.31,-13.65,-13.83,0,*64
1516352689.75,1700,7.63,71736.8,-9.31,-14.05,-14.11,0,*68
1516352690.98,1701,7.69,71740.0,-9.31,-13.73,-13.79,0,*66
1516352692.18,1702,7.63,71738.3,-9.31,-13.93,-14.11,0,*62
1516352693.45,1703,7.69,71742.3,-9.31,-13.83,-14.05,0,*67
1516352694.65,1704,7.63,71736.8,-9.31,-13.73,-13.93,0,*67
1516352695.89,1705,7.69,71742.5,-9.31,-13.51,-13.79,0,*62
1516352697.1,1706,7.69,71742.3,-9.31,-13.51,-13.65,0,*6C
1516352698.34,1707,7.69,71742.3,-9.31,-12.97,-13.33,0,*65
1516352699.6,1708,7.69,71742.0,-9.29,-12.93,-13.37,0,*63
1516352700.83,1709,7.69,71744.0,-9.29,-13.07,-13.47,0,*69
1516352702.07,1710,7.63,71740.0,-9.29,-13.11,-13.65,0,*66
1516352703.32,1711,7.69,71744.3,-9.29,-13.37,-13.93,0,*6A
1516352704.62,1712,7.69,71744.3,-9.29,-13.37,-13.97,0,*6D
1516352705.87,1713,7.63,71742.0,-9.27,-13.29,-13.87,0,*6C
1516352707.11,1714,7.63,71746.5,-9.27,-13.47,-14.01,0,*6A
1516352708.34,1715,7.69,71746.5,-9.23,-13.55,-14.01,0,*6C
1516352709.54,1716,7.63,71744.3,-9.23,-13.93,-14.29,0,*6F
1516352710.78,1717,7.69,71748.3,-9.21,-14.11,-14.11,0,*6A
1516352712.05,1718,7.69,71748.5,-9.21,-14.23,-14.01,0,*65
1516352713.28,1719,7.63,71746.3,-9.19,-14.29,-13.97,0,*6D
1516352714.58,1720,7.69,71748.5,-9.21,-14.51,-13.97,0,*63
1516352715.86,1721,7.69,71750.0,-9.21,-14.55,-13.87,0,*67
1516352717.07,1722,7.69,71748.5,-9.19,-14.29,-13.73,0,*6F
1516352718.31,1723,7.69,71754.3,-9.19,-14.15,-13.37,0,*61
1516352719.57,1724,7.69,71750.8,-9.21,-14.43,-13.69,0,*65
1516352720.77,1725,7.69,71750.5,-9.19,-14.29,-13.43,0,*6B
1516352722.06,1726,7.63,71748.8,-9.17,-14.05,-13.33,0,*6F
1516352723.32,1727,7.69,71752.8,-9.17,-14.05,-13.47,0,*6D
1516352724.61,1728,7.63,71750.8,-9.17,-13.97,-13.37,0,*69
1516352725.84,1729,7.69,71752.8,-9.15,-13.47,-13.07,0,*64
1516352727.11,1730,7.69,71756.5,-9.17,-13.37,-13.19,0,*66
1516352728.37,1731,7.63,71752.3,-9.15,-13.51,-13.37,0,*69
1516352729.63,1732,7.69,71752.5,-9.17,-13.33,-13.11,0,*68
1516352730.87,1733,7.69,71752.8,-9.15,-13.23,-13.19,0,*62
1516352732.13,1734,7.69,71752.5,-9.15,-13.37,-13.23,0,*69
1516352733.41,1735,7.69,71754.0,-9.15,-13.33,-13.33,0,*6D
1516352734.64,1736,7.69,71754.5,-9.17,-13.11,-13.11,0,*6C
1516352735.88,1737,7.63,71752.3,-9.15,-13.19,-13.23,0,*66
1516352737.12,1738,7.63,71754.3,-9.17,-12.93,-12.97,0,*66
1516352738.4,1739,7.69,71754.5,-9.17,-12.65,-12.61,0,*67
1516352739.68,1740,7.69,71756.0,-9.17,-12.61,-12.53,0,*6C
1516352740.94,1741,7.69,71752.8,-9.15,-12.83,-12.93,0,*6F
1516352742.21,1742,7.63,71754.0,-9.13,-12.75,-12.79,0,*67
1516352743.46,1743,7.63,71752.8,-9.11,-12.93,-13.01,0,*62
1516352744.71,1744,7.69,71752.3,-9.13,-13.01,-13.19,0,*64
1516352745.91,1745,7.63,71748.0,-9.13,-12.89,-13.07,0,*6B
1516352747.17,1746,7.69,71750.8,-9.11,-12.89,-13.01,0,*6C
1516352748.43,1747,7.69,71752.8,-9.11,-13.01,-13.07,0,*6A
1516352749.67,1748,7.63,71752.5,-9.13,-13.01,-13.19,0,*68
1516352750.96,1749,7.69,71752.5,-9.11,-13.29,-13.33,0,*69
1516352752.21,1750,7.63,71754.0,-9.11,-13.01,-13.15,0,*6F
1516352753.45,1751,7.69,71754.8,-9.11,-12.93,-13.15,0,*64
1516352754.68,1752,7.69,71754.8,-9.11,-13.73,-13.93,0,*66
1516352755.89,1753,7.69,71752.3,-9.13,-13.55,-13.73,0,*6F
1516352757.14,1754,7.69,71754.3,-9.11,-13.15,-13.29,0,*61
1516352758.37,1755,7.69,71754.8,-9.13,-13.15,-13.33,0,*69
1516352759.6,1756,7.69,71754.0,-9.13,-13.15,-13.33,0,*6A
1516352760.87,1757,7.69,71756.0,-9.11,-13.01,-13.19,0,*64
1516352762.14,1758,7.63,71756.3,-9.11,-12.75,-12.89,0,*61
1516352763.4,1759,7.69,71758.5,-9.13,-13.01,-13.33,0,*60
1516352764.65,1760,7.69,71760.0,-9.11,-13.65,-13.79,0,*64
1516352765.88,1761,7.69,71758.0,-9.13,-13.65,-13.87,0,*66
1516352767.09,1762,7.69,71756.0,-9.13,-13.43,-13.55,0,*6E
1516352768.31,1763,7.63,71756.0,-9.15,-13.23,-13.47,0,*6C
1516352769.55,1764,7.69,71758.3,-9.13,-13.01,-13.07,0,*69
1516352770.75,1765,7.69,71756.3,-9.13,-12.93,-13.07,0,*62
1516352771.98,1766,7.63,71752.0,-9.13,-13.07,-13.29,0,*61
1516352773.21,1767,7.63,71758.0,-9.13,-13.15,-13.29,0,*63
1516352774.44,1768,7.63,71756.0,-9.13,-13.33,-13.47,0,*60
1516352775.67,1769,7.63,71756.8,-9.13,-13.15,-13.29,0,*6D
1516352776.93,1770,7.69,71758.8,-9.15,-13.23,-13.33,0,*6D
1516352778.19,1771,7.63,71758.8,-9.15,-13.19,-13.33,0,*65
1516352779.45,1772,7.69,71762.0,-9.15,-12.79,-12.97,0,*6E
1516352780.68,1773,7.63,71760.3,-9.15,-12.93,-13.07,0,*63
1516352781.94,1774,7.69,71760.3,-9.15,-13.07,-13.33,0,*6F
1516352783.14,1775,7.63,71760.0,-9.13,-12.89,-13.15,0,*6B
1516352784.37,1776,7.69,71762.5,-9.13,-13.29,-13.47,0,*64
1516352785.6,1777,7.69,71760.8,-9.13,-13.29,-13.47,0,*65
1516352786.83,1778,7.63,71758.5,-9.13,-13.33,-13.65,0,*61
1516352788.06,1779,7.63,71758.5,-9.13,-13.29,-13.55,0,*68
1516352789.3,1780,7.69,71760.8,-9.15,-13.23,-13.51,0,*66
1516352790.56,1781,7.69,71762.5,-9.15,-13.65,-13.97,0,*6F
1516352791.82,1782,7.69,71766.3,-9.15,-13.19,-13.37,0,*6D
1516352793.04,1783,7.63,71762.8,-9.15,-13.23,-13.47,0,*62
1516352794.28,1784,7.69,71766.5,-9.15,-13.19,-13.51,0,*6B
1516352795.53,1785,7.69,71766.3,-9.15,-13.33,-13.69,0,*69
1516352796.76,1786,7.69,71764.0,-9.15,-13.19,-13.65,0,*6E
1516352798.0,1787,7.63,71762.8,-9.15,-13.11,-13.51,0,*60
1516352799.23,1788,7.69,71766.3,-9.15,-13.11,-13.65,0,*68
1516352800.46,1789,7.69,71766.5,-9.13,-13.47,-14.05,0,*6D
1516352801.71,1790,7.63,71766.8,-9.11,-13.29,-13.93,0,*67
1516352802.92,1791,7.63,71762.3,-9.13,-13.73,-14.33,0,*66
1516352804.16,1792,7.69,71764.0,-9.11,-14.29,-14.89,0,*6E
1516352805.4,1793,7.69,71764.3,-9.13,-14.43,-15.07,0,*66
1516352806.64,1794,7.69,71764.5,-9.13,-14.47,-15.15,0,*66
1516352807.92,1795,7.63,71766.8,-9.17,-14.93,-15.35,0,*68
1516352809.19,1796,7.69,71770.5,-9.17,-14.55,-15.11,0,*67
1516352810.44,1797,7.69,71770.8,-9.15,-14.69,-15.21,0,*68
1516352811.66,1798,7.63,71766.8,-9.15,-14.69,-15.11,0,*64
1516352812.92,1799,7.69,71770.8,-9.17,-15.21,-15.49,0,*67
1516352814.18,1800,7.63,71766.5,-9.21,-15.71,-15.89,0,*64
1516352815.42,1801,7.69,71764.3,-9.21,-16.59,-16.79,0,*60
1516352816.65,1802,7.63,71760.5,-9.23,-17.11,-17.35,0,*65
1516352817.89,1803,7.63,71756.8,-9.27,-16.65,-16.79,0,*6B
1516352819.13,1804,7.69,71760.8,-9.31,-16.89,-17.03,0,*65
1516352820.4,1805,7.63,71758.3,-9.33,-17.49,-17.59,0,*64
1516352821.6,1806,7.69,71762.3,-9.35,-16.93,-16.93,0,*60
1516352822.89,1807,7.63,71762.5,-9.37,-16.51,-16.31,0,*65
1516352824.12,1808,7.69,71760.8,-9.37,-16.59,-16.37,0,*64
1516352825.38,1809,7.69,71762.5,-9.37,-16.45,-16.31,0,*6E
1516352826.64,1810,7.69,71762.8,-9.39,-16.31,-16.09,0,*60
1516352827.9,1811,7.63,71758.8,-9.43,-16.51,-16.23,0,*62
1516352829.2,1812,7.63,71762.0,-9.41,-16.13,-15.81,0,*6E
1516352830.49,1813,7.69,71762.0,-9.41,-16.23,-15.81,0,*6C
1516352831.76,1814,7.69,71762.3,-9.45,-16.13,-15.71,0,*63
1516352833.04,1815,7.63,71760.0,-9.45,-15.43,-15.01,0,*63
1516352834.3,1816,7.69,71762.8,-9.45,-15.89,-15.67,0,*66
1516352835.55,1817,7.69,71760.3,-9.49,-15.43,-15.11,0,*6C
1516352836.82,1818,7.69,71762.0,-9.45,-15.43,-15.29,0,*64
1516352838.05,1819,7.69,71764.3,-9.51,-15.43,-15.29,0,*60
1516352839.27,1820,7.63,71760.0,-9.51,-16.17,-16.03,0,*63
1516352840.5,1821,7.69,71766.5,-9.53,-15.75,-15.75,0,*65
1516352841.75,1822,7.69,71766.3,-9.53,-15.57,-15.63,0,*61
1516352842.97,1823,7.63,71762.3,-9.51,-15.57,-15.71,0,*61
1516352844.23,1824,7.63,71760.0,-9.53,-15.57,-15.75,0,*60
1516352845.42,1825,7.69,71766.3,-9.55,-15.95,-16.41,0,*6D
1516352846.65,1826,7.69,71764.3,-9.55,-15.89,-16.37,0,*62
1516352847.9,1827,7.69,71764.5,-9.57,-16.13,-16.79,0,*6B
1516352849.15,1828,7.63,71760.8,-9.57,-16.23,-16.97,0,*67
1516352850.4,1829,7.69,71762.3,-9.57,-16.37,-17.03,0,*6F
1516352851.65,1830,7.69,71762.5,-9.59,-16.27,-17.07,0,*6C
1516352852.92,1831,7.69,71762.5,-9.61,-16.41,-17.07,0,*66
1516352854.18,1832,7.69,71764.3,-9.61,-16.41,-17.07,0,*65
1516352855.41,1833,7.69,71764.5,-9.61,-16.41,-16.93,0,*68
1516352856.63,1834,7.63,71760.5,-9.63,-16.17,-16.59,0,*68
1516352857.85,1835,7.69,71762.3,-9.63,-16.59,-17.25,0,*69
1516352859.1,1836,7.69,71764.0,-9.65,-16.59,-17.21,0,*68
1516352860.31,1837,7.69,71762.5,-9.63,-16.75,-17.35,0,*64
1516352861.53,1838,7.69,71764.8,-9.63,-16.89,-17.41,0,*6B
1516352862.81,1839,7.63,71758.8,-9.65,-17.21,-17.55,0,*6A
1516352864.08,1840,7.69,71762.0,-9.65,-17.41,-17.63,0,*67
1516352865.28,1841,7.63,71756.3,-9.71,-17.69,-17.73,0,*68
1516352866.5,1842,7.63,71758.8,-9.71,-17.83,-17.59,0,*67
1516352867.72,1843,7.69,71760.8,-9.71,-17.83,-17.45,0,*6B
1516352868.94,1844,7.63,71756.3,-9.71,-17.55,-16.93,0,*6D
1516352870.16,1845,7.69,71760.8,-9.71,-17.55,-16.83,0,*6D
1516352871.42,1846,7.63,71758.8,-9.73,-17.45,-16.59,0,*6A
1516352872.67,1847,7.69,71760.8,-9.73,-18.11,-17.21,0,*6B
1516352873.91,1848,7.69,71760.8,-9.77,-17.55,-16.45,0,*6C
1516352875.17,1849,7.63,71760.5,-9.77,-17.11,-16.03,0,*6F
1516352876.41,1850,7.69,71764.3,-9.77,-16.59,-15.49,0,*67
1516352877.64,1851,7.63,71760.3,-9.77,-16.59,-15.63,0,*6E
1516352878.88,1852,7.69,71766.8,-9.77,-16.37,-15.49,0,*6D
1516352880.11,1853,7.69,71762.5,-9.77,-16.37,-15.63,0,*64
1516352881.34,1854,7.63,71760.3,-9.79,-16.37,-15.85,0,*65
1516352882.56,1855,7.63,71760.3,-9.79,-16.23,-15.75,0,*6E
1516352883.82,1856,7.63,71760.5,-9.79,-15.89,-15.57,0,*6E
1516352885.02,1857,7.63,71758.3,-9.81,-15.95,-15.53,0,*61
1516352886.26,1858,7.63,71758.0,-9.83,-15.49,-15.21,0,*68
1516352887.5,1859,7.69,71762.3,-9.81,-15.39,-15.25,0,*68
1516352888.72,1860,7.63,71756.0,-9.81,-15.63,-15.35,0,*6C
1516352889.99,1861,7.63,71756.3,-9.83,-15.39,-15.21,0,*65
1516352891.21,1862,7.69,71756.5,-9.83,-15.15,-15.15,0,*6F
1516352892.47,1863,7.63,71754.8,-9.83,-15.35,-15.25,0,*6F
1516352893.69,1864,7.63,71756.8,-9.83,-15.49,-15.53,0,*62
1516352894.92,1865,7.63,71758.3,-9.83,-15.49,-15.53,0,*63
1516352896.14,1866,7.63,71756.8,-9.83,-15.67,-15.75,0,*68
1516352897.37,1867,7.63,71760.8,-9.85,-15.81,-15.95,0,*69
1516352898.57,1868,7.69,71762.8,-9.85,-15.95,-15.95,0,*63
1516352899.79,1869,7.69,71762.5,-9.87,-15.53,-15.67,0,*67
1516352901.07,1870,7.63,71760.3,-9.87,-15.81,-15.85,0,*6C
1516352902.32,1871,7.63,71758.8,-9.87,-15.81,-15.71,0,*66
1516352903.55,1872,7.69,71760.8,-9.89,-15.29,-15.35,0,*69
1516352904.74,1873,7.63,71756.8,-9.89,-15.11,-15.15,0,*61
1516352905.97,1874,7.63,71760.0,-9.89,-15.43,-15.63,0,*60
1516352907.22,1875,7.69,71758.0,-9.87,-15.81,-15.95,0,*68
1516352908.45,1876,7.63,71756.0,-9.89,-15.75,-16.13,0,*63
1516352909.68,1877,7.69,71762.5,-9.91,-15.49,-15.99,0,*65
1516352910.93,1878,7.69,71762.0,-9.91,-15.75,-16.31,0,*64